NOAA 16 DEB, 42406

Orbit data source: Space-Track

NOAA 16 DEB, 42406 is space debris in SSO originally from a launch on Thu, 21 Sep 2000 UTC launched from the Air Force Western Test Range (AFWTR). Debris objects in space refer to the collection of defunct objects orbiting the Earth. Examples of debris include non-operational satellites, rocket bodies, and fragments generated from explosions, collisions, or faulty payload assembly.

Loading next visibility...
Identifier
42406, 2000-055TA
Orbit
SSO
Country
Flag of USUS
Related business
Manufacturer
Unknown
Mission
Spacecraft
Bus & Motor
Unknown
Mass
Unknown
Launch date (UTC)
2000-09-21 (25 years ago)
Launch vehicle
Unknown
Launch site
Air Force Western Test Range (AFWTR)
Object type
Payload
Rocket body
Debris
Shape & HBR
Unknown shape, 0.1 m
Radar Cross Section
Small (<0.1 m²)

Expand to show TLE details & history
Last TLE update: 1 week ago

TLE from 1 week ago
0 NOAA 16 DEB
1 42406U 00055TA  25345.39662435  .00001927  00000-0  92824-3 0  9990
2 42406  98.5939  42.0578 0017662 137.8163 222.4376 14.19779666502366
Epoch: 2025-12-11T09:31Z
TLE epoch observation values (Epoch: 2025-12-11T09:31:08.343Z)
Latitude
-0.00007°
Longitude
178.91985°
Altitude
838.419 km
Speed
7.429 km/s
True Right ascension
02h 48m 13s
True Declination
0° 00' 00"
Sunlit
Object was in full shadow at epoch
Visualization orbit readout
Latitude
Unknown
Longitude
Unknown
Altitude
Unknown
Speed
Unknown
Apparent Right ascension
Unknown
Apparent Declination
Unknown
Sunlit
N/A
Visualization observer readout
Local Sidereal Time
02:43:36
Azimuth
Unknown
Elevation
Unknown
Doppler factor
Unknown
Orbital elements
Apogee altitude
835.971 km
Perigee altitude
810.532 km
Semi-major axis
7,201.388 km
Eccentricity
0.00177
Inclination
98.5939°
RAAN
42.0578°
Arg. of periapsis
137.8163°
True anomaly
222.30125°
Mean anomaly
222.4376°
Eccentric anomaly
222.3694°
Mean motion
3.55156 °/min
Orbital period
101.36 mins
BSTAR
0.00092824
Loading maneuver chart data...
Computing Atmospheric mass density...
Loading historical data...
Loading historical data...
Loading historical data...
Loading historical data...
Loading historical data...
Loading historical data...
Loading historical data...

Documentation

Showing up to 5 results
|